Vorticity
nan nan nan nan nan nan nan nan nan nan nan nan nan nan nan nan nan nan nan nan nan nan nan nan nan nan nan nan nan nan nan nan nan nan nan nan nan nan nan nan nan nan nan
nan 6 6 6 7 7 6 5 4 5 5 4 4 4 4 5 5 5 4 4 5 5 4 5 4 4 4 4 5 5 5 5 7 6 5 3 3 6 6 6 6 7 nan
nan 6 6 7 6 6 5 5 6 6 5 5 5 4 4 4 4 4 5 4 4 4 4 4 3 4 4 5 5 5 9 10 8 5 1 1 3 6 5 5 6 7 nan
nan 5 7 8 6 7 6 5 6 6 5 5 4 5 5 4 4 4 3 5 5 5 4 4 3 3 4 4 5 8 10 15 11 3 5 7 5 4 4 5 5 6 nan
nan 7 9 9 7 6 5 5 6 4 4 4 4 4 4 5 5 5 4 3 5 4 4 4 3 3 5 5 7 7 7 10 8 5 8 9 5 6 6 5 5 6 nan
nan 7 8 6 6 7 8 6 5 5 5 4 5 5 5 5 5 4 4 7 7 6 4 3 3 5 5 6 6 6 6 4 2 5 6 7 8 8 6 7 7 7 nan
nan 7 8 6 8 8 7 6 5 6 6 5 5 5 5 5 5 6 7 8 7 7 5 4 4 6 5 6 12 10 5 5 4 6 7 5 10 6 5 6 5 6 nan
nan 7 7 7 6 8 8 6 6 6 6 6 7 6 5 6 7 7 9 7 6 7 6 4 5 5 5 10 14 9 6 4 6 7 7 7 10 5 4 4 5 6 nan
nan 8 7 8 7 7 7 8 7 7 6 7 7 7 7 6 7 7 6 6 6 6 5 5 6 6 8 15 9 6 6 4 4 5 5 7 8 5 5 5 6 7 nan
nan 6 6 7 7 7 8 8 7 7 7 9 7 8 8 4 4 5 5 6 6 5 5 4 5 6 12 13 6 5 4 1 4 5 5 13 6 7 7 7 7 6 nan
nan 6 7 7 8 7 6 8 8 6 6 5 7 5 0 2 5 5 6 7 7 6 6 5 5 6 8 4 2 3 -2 1 5 5 7 12 5 6 6 7 7 7 nan
nan 6 6 7 7 6 7 7 6 6 5 5 6 2 3 7 7 7 7 5 3 5 5 7 5 1 -0 0 1 1 3 8 6 7 11 7 6 5 5 4 6 7 nan
nan 6 8 7 7 6 5 5 5 7 8 10 8 5 5 6 6 5 5 4 7 5 4 7 4 3 4 6 7 6 9 7 7 8 11 7 6 6 7 7 6 6 nan
nan 5 6 8 7 4 5 7 6 6 7 8 8 6 5 5 7 6 7 6 5 6 7 6 7 8 8 10 8 8 8 8 8 9 7 9 8 6 7 8 7 6 nan
nan 7 7 5 7 6 4 5 7 7 7 8 8 6 5 7 6 7 8 6 6 6 8 7 7 8 9 8 8 7 6 8 8 9 7 9 12 7 6 7 6 5 nan
nan 7 7 6 7 8 7 6 5 8 8 7 8 8 6 5 6 8 7 7 6 6 8 9 9 9 8 7 8 6 6 6 7 9 7 3 8 15 9 6 5 5 nan
nan 10 7 7 6 8 7 5 6 8 8 7 8 10 6 5 6 7 6 7 7 7 7 7 9 10 8 8 6 5 6 7 7 7 8 6 1 6 14 12 7 6 nan
nan 9 7 7 8 7 7 4 7 7 6 7 6 10 9 7 6 5 7 7 7 8 7 8 7 8 8 8 6 6 6 6 7 6 8 8 6 2 5 14 11 6 nan
nan 10 8 8 9 8 6 7 8 7 7 9 8 8 9 8 8 6 7 10 8 7 7 7 9 8 6 8 8 8 8 6 6 6 7 7 7 8 4 3 6 8 nan
nan 15 8 9 10 8 5 8 9 9 8 8 10 11 10 8 10 5 8 9 7 7 7 8 8 9 9 7 7 7 7 8 8 7 6 6 7 7 7 2 2 6 nan
nan 16 14 9 7 6 8 7 7 9 8 9 13 10 8 9 8 4 8 9 9 8 8 7 8 7 6 5 3 4 6 10 9 7 6 7 6 7 8 7 8 7 nan
nan 15 16 13 9 7 7 7 9 11 10 10 10 14 11 10 7 8 6 6 5 7 9 8 4 2 9 5 1 5 5 3 9 9 8 9 7 7 6 7 7 8 nan
nan 8 10 10 9 13 9 4 5 6 10 12 9 13 11 12 10 9 6 6 6 7 8 9 7 5 3 10 3 -1 8 9 6 7 10 9 8 7 8 7 8 7 nan
nan 12 11 8 7 7 7 9 8 4 6 8 9 8 11 12 12 9 9 10 6 6 9 8 6 6 8 8 -1 2 11 12 8 7 8 10 10 8 7 7 7 7 nan
nan 9 10 11 9 8 8 6 6 7 7 9 12 10 9 8 10 12 11 7 6 8 11 9 7 5 6 8 4 3 8 8 10 12 11 6 8 8 9 9 7 7 nan
nan nan nan nan nan nan nan nan nan nan nan nan nan nan nan nan nan nan nan nan nan nan nan nan nan nan nan nan nan nan nan nan nan nan nan nan nan nan nan nan nan nan nan
CAPE
1858 1973 2361 2719 2890 2863 2555 2507 2443 2551 2619 2653 2600 2567 2515 2469 2364 2323 2327 2270 2177 1919 1618 1358 1149 978 762 549 376 326 426 834 1415 1992 1896 1564 1337 1015 1116 1395 1281 1232 1383
1858 2003 2370 2746 2957 2976 2737 2606 2547 2612 2739 2712 2603 2543 2472 2366 2249 2172 2232 2219 2141 1800 1477 1262 1182 861 608 322 148 47 111 188 594 1698 1770 1513 1236 1184 1241 1347 1420 1359 1458
1872 2064 2370 2631 2873 3008 2971 2779 2772 2893 2957 2795 2645 2581 2539 2502 2356 2222 2200 2122 2065 1660 1350 1269 1091 606 293 35 0 3 71 203 40 1360 1496 932 979 1288 1264 1317 1169 1066 876
1754 2016 2258 2469 2606 2954 2909 2820 2956 3127 3041 2803 2715 2698 2669 2555 2440 2304 2329 2187 2078 1581 1299 1308 756 346 8 0 0 157 1252 1135 947 902 933 848 862 1205 1005 759 769 720 721
1727 1921 2199 2376 2460 2843 2861 2836 2903 2977 2805 2695 2704 2807 2742 2696 2605 2495 2403 2059 1974 1395 1192 1016 448 5 0 0 5 896 1064 1080 1008 842 644 659 536 777 577 234 255 366 399
1665 1798 2073 2208 2405 2738 2869 2899 2893 2812 2577 2494 2596 2757 2789 2701 2613 2550 2287 1907 1782 1665 1135 666 70 0 2 0 21 254 713 656 456 368 415 527 393 546 352 189 109 117 109
1709 1767 1919 2075 2395 2699 2933 2978 2860 2674 2453 2430 2587 2632 2586 2623 2691 2424 2025 1972 1918 1639 783 212 0 0 0 0 85 469 455 359 126 207 267 240 347 438 228 67 35 35 39
1765 1546 1747 1963 2291 2652 2866 2848 2660 2473 2349 2399 2515 2486 2506 2512 2163 2014 1938 1757 1462 962 264 0 0 0 0 0 265 405 354 305 131 128 193 191 436 258 99 32 14 9 7
1718 1451 1524 1879 2212 2464 2562 2468 2304 2225 2213 2303 2446 2324 2226 1807 1582 1603 1472 1209 852 282 3 0 0 0 0 114 318 247 218 158 2 0 0 0 70 37 36 21 11 10 6
1632 1518 1483 1631 1967 2213 2312 2026 1992 2008 1991 2135 2094 1891 1397 1203 1156 1034 836 686 421 66 0 0 0 0 0 183 125 37 18 0 0 0 0 0 7 31 32 25 23 17 13
1653 1546 1492 1537 1754 2093 2219 2080 1864 1855 1862 1828 1652 1143 682 567 355 165 164 271 177 38 7 0 0 0 0 5 5 1 0 0 0 0 0 0 12 19 16 14 14 15 15
1890 1520 1521 1540 1580 1645 1832 2040 2045 2050 1948 1839 1384 723 76 0 0 19 51 113 52 1 1 0 0 0 0 0 0 0 0 0 0 0 0 1 12 15 14 14 12 14 24
2008 1803 1572 1606 1568 1642 1659 1590 1720 1876 1648 1198 689 23 0 0 0 0 0 0 0 0 0 0 0 0 0 0 0 0 0 0 0 0 0 7 10 12 8 7 10 21 19
1492 1848 1710 1716 1760 1650 1580 1530 1484 1461 1197 662 131 0 0 0 0 0 0 0 0 0 0 0 0 0 0 0 0 0 0 0 0 0 2 16 13 13 11 13 16 22 26
1384 1503 1584 1611 1802 1869 1789 1477 1523 1285 1140 684 86 0 0 0 0 0 0 0 0 0 0 0 0 0 0 0 0 0 0 0 0 0 0 23 28 22 16 20 24 23 25
1502 1568 1601 1580 1727 1908 1989 1653 1688 1493 1114 720 346 17 0 0 0 0 0 0 0 0 0 0 0 0 0 0 0 0 0 0 0 0 0 0 25 39 33 22 27 21 26
1660 1616 1537 1764 1483 1698 2059 1791 1539 1239 742 687 391 7 0 0 0 0 0 0 0 0 0 0 0 0 0 0 0 0 0 0 0 0 0 0 0 1 36 39 23 23 23
1154 1546 1532 1551 1665 1587 1937 1536 1238 1117 710 640 308 22 0 0 0 0 0 0 0 0 0 0 0 0 0 0 0 0 0 0 0 0 0 0 0 0 1 27 34 24 29
172 1382 1712 1615 1721 1799 1573 1248 888 765 610 458 200 35 1 0 0 0 0 0 0 0 0 0 0 0 0 0 0 0 0 0 0 0 0 0 0 0 0 2 15 29 22
515 1238 1486 1709 1881 1867 1451 969 673 451 445 172 81 35 4 1 1 0 0 0 0 0 0 0 0 0 0 0 0 0 0 0 0 0 0 0 0 0 0 0 0 2 34
574 1198 1414 1850 1735 1044 862 571 272 175 153 5 1 46 1 0 0 0 0 0 0 0 0 0 0 0 0 0 0 0 0 0 0 0 0 0 0 0 0 0 0 0 0
673 1084 1326 1471 839 1003 787 524 151 206 5 16 11 1 1 0 0 0 0 0 0 0 0 0 0 0 0 0 0 0 0 0 0 0 0 0 0 0 0 0 0 0 0
400 454 617 462 553 441 262 0 0 0 0 0 0 0 2 1 0 0 0 0 0 0 0 0 0 0 0 0 0 0 0 0 0 0 0 0 0 0 0 0 0 0 0
0 255 421 290 227 52 0 0 0 6 0 0 0 0 2 1 2 0 0 0 0 0 0 0 0 0 0 0 0 0 0 0 0 0 0 0 0 0 0 0 0 0 0
0 0 0 97 149 116 0 0 0 0 0 0 0 0 0 0 2 1 0 0 0 0 0 0 0 0 0 0 0 0 0 0 0 0 0 0 0 0 0 0 0 0 0
0 0 0 0 61 0 0 0 0 1 0 0 0 0 0 0 1 2 3 3 1 0 0 0 0 0 0 0 0 0 0 0 0 0 0 0 0 0 0 0 0 0 0